[[{"header":{"parameterUnit":"m.s-1","parameterCategory":1,"la1":30.2991,"la2":30.254,"lo1":-89.0895,"lo2":-89.0444,"dy":0.0017,"dx":0.0017,"nx":28,"ny":28,"refTime":"2025-01-16T03:00:00:Z","depth":0,"parameterNumber":2,"parameterNumberName":"U-component_of_WINDS"},"data":[0,0,0,0,0,0,0,0,0,0,0,0,0,0,0,0,0,0,0,0,0,0,0,0,0,0,0,0,0,0,0,0,0,0,0,0,0,0,0,0,0,0,0,0,0,0,0,0,0,0,0,0,0,0,0,0,0,0,-1.9878,-1.9879,0,-1.9989,-1.9991,-1.9992,-1.9963,-1.9961,-1.9959,-1.9957,-2.0072,-2.0077,-2.0082,0,0,0,0,0,0,0,0,0,0,0,0,0,-1.964,-1.9645,-1.9877,-1.9879,-1.988,-1.9989,-1.9991,-1.9992,-1.9964,-1.9961,-1.9958,-1.9956,-2.007,-2.0077,-2.0083,0,0,0,0,0,0,0,0,0,0,0,0,0,-1.9747,-1.9646,-1.9877,-1.9879,-1.988,-1.9989,-1.9991,-1.9993,-1.9964,-1.9961,-1.9957,-1.9954,-2.0068,-2.0076,-2.0084,-2.0197,0,0,-2.0107,-2.011,0,0,0,0,0,0,0,0,-1.9741,-1.9755,-1.9877,-1.9879,-1.9881,-1.9959,-1.9949,-2.0061,-1.9965,-1.9932,-1.9957,-1.9953,-2.0037,-2.0047,-2.0076,-2.0203,-2.0208,-2.0108,-2.0112,-2.0116,-2.0118,0,0,0,0,0,0,0,-1.9733,-1.9751,-1.9922,-1.9879,-1.9881,-1.9875,-1.9886,-1.997,-2.0002,-1.9935,-1.9933,-1.9947,-2.0037,-2.0068,-2.0078,-2.0209,-2.0108,-2.0114,-2.0119,-2.0122,-2.0437,-2.044,0,0,0,0,0,0,-1.9725,-1.9745,-1.9918,-1.9925,-1.9801,-1.9882,-1.9894,-1.9937,-2.0001,-2.0008,-1.9949,-1.9945,-2.0057,-2.0069,-2.0082,-2.0221,-2.0116,-2.0123,-2.0127,-2.0433,-2.0437,-2.0441,0,0,0,0,0,0,-1.972,-1.974,-1.9914,-1.9834,-1.9856,-1.9889,-1.9937,-1.9941,-1.9972,-2.0012,-2.0017,-1.9975,-2.0055,-2.0071,-2.0169,-2.0224,-2.0126,-2.0133,-2.0429,-2.0434,-2.0439,-2.0498,0,0,0,0,0,0,-1.9713,-1.9739,-1.9782,-1.9836,-1.986,-1.9999,-1.9941,-1.9946,-1.9985,-1.998,-2.0037,-2.0044,-2.0053,-2.0158,-2.0177,-2.0233,-2.0139,-2.0424,-2.0431,-2.0438,-2.0491,-2.0505,-2.0517,0,0,0,0,0,-1.9704,-1.9794,-1.9784,-1.9805,-1.9915,-2.0002,-2.0016,-2.0025,-1.9989,-2.0034,-2.006,-2.0042,-2.0215,-2.0168,-2.0189,-2.0249,-2.042,-2.0429,-2.0437,-2.0486,-2.0502,-2.0516,0,0,0,0,0,0,-1.9746,-1.9801,-1.9791,-1.99,-1.9947,-1.9997,-2.0053,-2.0042,-2.01,-2.0093,-2.0102,-2.0115,-2.0215,-2.0241,-2.0188,-2.0362,-2.0312,-2.0325,-2.0342,-2.0358,-2.037,-2.0363,-2.0146,0,0,0,0,0,-1.9768,-1.9834,-1.9878,-1.997,-1.9994,-2.002,-2.0058,-2.0061,-2.0109,-2.0129,-2.0161,-2.021,-2.0275,-2.0318,-2.038,-2.0494,-2.0507,-2.0546,-2.0558,-2.0568,-2.058,-2.0644,-2.0662,-2.0469,-2.0469,-2.0469,0,0,-1.9814,-1.9852,-1.9893,-1.998,-2.0016,-2.0085,-2.0036,-2.011,-2.0162,-2.014,-2.0235,-2.0261,-2.0315,-2.0422,-2.0471,-2.0447,-2.0636,-2.0579,-2.0587,-2.0593,-2.0654,-2.0673,-2.0689,-2.0475,-2.0474,-2.0473,0,0,-1.9934,-1.9968,-2.005,-2.0087,-2.0143,-2.0159,-2.0178,-2.023,-2.0247,-2.0342,-2.0327,-2.0388,-2.05,-2.0539,-2.0574,-2.0709,-2.0695,-2.0728,-2.0795,-2.0857,-2.0872,-2.0886,-2.0935,-2.0953,-2.074,-2.074,-2.074,0,-1.9984,-2.0087,-2.0093,-2.0169,-2.0208,-2.0191,-2.0274,-2.031,-2.0383,-2.041,-2.0382,-2.0523,-2.0558,-2.0675,-2.0707,-2.0735,-2.0759,-2.0723,-2.0869,-2.0883,-2.0896,-2.0943,-2.0962,-2.0744,-2.0743,-2.0743,-2.0742,0,-2.0147,-2.0218,-2.0277,-2.0348,-2.0393,-2.0472,-2.0491,-2.0536,-2.0535,-2.0555,-2.0652,-2.0693,-2.0764,-2.0792,-2.0791,-2.0909,-2.0893,-2.0867,-2.0817,-2.0918,-2.0963,-2.0981,-2.0749,-2.0748,-2.0746,-2.0746,0,0,-2.0297,-2.037,-2.0392,-2.0425,-2.0484,-2.054,-2.0618,-2.0687,-2.0726,-2.0777,-2.0843,-2.0938,-2.0915,-2.0955,-2.0958,-2.1012,-2.1118,-2.098,-2.0982,-2.1006,-2.1252,-2.1272,-2.1293,-2.1109,-2.1112,-2.1115,-2.1248,0,-2.0423,-2.0561,-2.0569,-2.0694,-2.0761,-2.0745,-2.0814,-2.0858,-2.0878,-2.0938,-2.096,-2.1028,-2.0991,-2.1015,-2.1068,-2.1094,-2.1168,-2.1084,-2.1172,-2.1175,-2.1161,-2.1316,-2.1338,-2.1461,-2.1265,-2.1268,-2.127,0,-2.0588,-2.0644,-2.0776,-2.0827,-2.0856,-2.0917,-2.0981,-2.1038,-2.1088,-2.1099,-2.1143,-2.1139,-2.122,-2.1166,-2.1278,-2.1221,-2.1257,-2.1276,-2.1281,-2.1291,-2.123,-2.1332,-2.1501,-2.152,-2.1298,-2.1295,-2.1293,0,-2.0687,-2.0795,-2.0888,-2.0916,-2.0978,-2.1021,-2.1049,-2.1096,-2.1137,-2.1193,-2.122,-2.1284,-2.132,-2.1371,-2.1385,-2.1344,-2.1497,-2.1444,-2.1509,-2.1509,-2.1544,-2.1542,-2.1723,-2.1564,-2.1564,-2.1564,-2.1563,0,-2.0827,-2.0909,-2.0933,-2.0991,-2.1082,-2.1091,-2.1181,-2.1206,-2.1248,-2.131,-2.13,-2.1359,-2.1373,-2.1435,-2.1446,-2.1538,-2.1554,-2.1566,-2.1568,-2.1568,-2.1567,-2.1593,-2.1585,-2.1569,-2.1568,-2.1567,-2.1566,0,-2.0953,-2.0972,-2.1073,-2.1123,-2.1138,-2.1203,-2.1246,-2.1302,-2.132,-2.1399,-2.1419,-2.1448,-2.152,-2.1538,-2.1625,-2.1632,-2.1742,-2.1735,-2.1725,-2.1725,-2.179,-2.1785,-2.1996,-2.2025,-2.1846,-2.1847,-2.1849,0,-2.1043,-2.1105,-2.1162,-2.1203,-2.1233,-2.1299,-2.1341,-2.1352,-2.1396,-2.1458,-2.1506,-2.1577,-2.1635,-2.1751,-2.1781,-2.1847,-2.1843,-2.1912,-2.1853,-2.1851,-2.1846,-2.1843,-2.1849,-2.1924,-2.1926,-2.1927,-2.1929,0,-2.12,-2.1206,-2.1267,-2.1332,-2.1382,-2.1434,-2.1483,-2.1517,-2.1534,-2.1585,-2.1658,-2.1703,-2.1791,-2.1862,-2.1929,-2.1958,-2.1947,-2.1947,-2.1966,-2.1967,-2.1959,-2.1966,-2.1758,-2.1942,-2.1941,-2.194,-2.1939,-2.1939,-2.1312,-2.1367,-2.1416,-2.1484,-2.1522,-2.1568,-2.1623,-2.1649,-2.171,-2.1783,-2.1785,-2.1866,-2.1915,-2.2003,-2.2036,-2.2099,-2.2078,-2.2105,-2.2113,-2.212,-2.2126,-2.1948,-2.2111,-2.2111,-2.2111,-2.211,-2.211,0,-2.147,-2.15,-2.1563,-2.1632,-2.1686,-2.167,-2.1724,-2.177,-2.1841,-2.1887,-2.1944,-2.203,-2.2099,-2.2133,-2.2202,-2.2246,-2.2243,-2.2264,-2.2261,-2.2269,-2.214,-2.2118,-2.2265,-2.2265,-2.2265,-2.2265,-2.2265,-2.2265,-2.1558,-2.1652,-2.1664,-2.1776,-2.1806,-2.1885,-2.1917,-2.196,-2.1997,-2.2093,-2.215,-2.2172,-2.2214,-2.2286,-2.2348,-2.2357,-2.2383,-2.2407,-2.2413,-2.2293,-2.2277,-2.2262,-2.2241,-2.2413,-2.2413,-2.2537,-2.2538,-2.2539]},{"header":{"parameterUnit":"m.s-1","parameterCategory":1,"la1":30.2991,"la2":30.254,"lo1":-89.0895,"lo2":-89.0444,"dy":0.0017,"dx":0.0017,"nx":28,"ny":28,"refTime":"2025-01-16T03:00:00:Z","depth":0,"parameterNumber":3,"parameterNumberName":"V-component_of_WINDS"},"data":[0,0,0,0,0,0,0,0,0,0,0,0,0,0,0,0,0,0,0,0,0,0,0,0,0,0,0,0,0,0,0,0,0,0,0,0,0,0,0,0,0,0,0,0,0,0,0,0,0,0,0,0,0,0,0,0,0,0,0.5344,0.5343,0,0.532,0.532,0.532,0.5311,0.5311,0.5311,0.5311,0.5285,0.5284,0.5284,0,0,0,0,0,0,0,0,0,0,0,0,0,0.538,0.5379,0.5344,0.5343,0.5343,0.532,0.532,0.532,0.5311,0.5311,0.5311,0.5311,0.5285,0.5284,0.5283,0,0,0,0,0,0,0,0,0,0,0,0,0,0.5361,0.5379,0.5344,0.5336,0.5335,0.532,0.532,0.5319,0.5311,0.5311,0.5311,0.5311,0.5286,0.5284,0.5283,0.5274,0,0,0.528,0.5279,0,0,0,0,0,0,0,0,0.5362,0.536,0.5338,0.5337,0.5336,0.5319,0.5323,0.5304,0.5311,0.532,0.5311,0.5311,0.5296,0.5294,0.5289,0.5272,0.5271,0.528,0.5279,0.5278,0.5278,0,0,0,0,0,0,0,0.5363,0.536,0.5334,0.5337,0.5336,0.5333,0.5331,0.5319,0.5308,0.5319,0.5319,0.5316,0.5295,0.529,0.5289,0.5271,0.528,0.5279,0.5278,0.5277,0.5245,0.5245,0,0,0,0,0,0,0.5366,0.5362,0.5335,0.5334,0.5349,0.5333,0.533,0.5324,0.5308,0.5305,0.5316,0.5316,0.5292,0.529,0.5288,0.5275,0.5278,0.5277,0.5277,0.5245,0.5245,0.5245,0,0,0,0,0,0,0.5367,0.5364,0.5336,0.5347,0.5344,0.5332,0.5325,0.5323,0.5318,0.5305,0.5303,0.5313,0.5292,0.5289,0.5277,0.5274,0.5277,0.5276,0.5246,0.5245,0.5245,0.5251,0,0,0,0,0,0,0.5368,0.5364,0.5361,0.5347,0.5343,0.5327,0.5325,0.5323,0.5317,0.5316,0.5302,0.53,0.5292,0.5279,0.5276,0.5273,0.5275,0.5246,0.5246,0.5245,0.5251,0.5251,0.5251,0,0,0,0,0,0.5369,0.5363,0.5361,0.5357,0.5339,0.5327,0.5324,0.5316,0.5316,0.5313,0.5304,0.53,0.5275,0.5278,0.5275,0.5271,0.5246,0.5246,0.5245,0.5251,0.5251,0.5251,0,0,0,0,0,0,0.5375,0.5361,0.5358,0.5347,0.5338,0.5325,0.532,0.5316,0.5307,0.5306,0.5297,0.5293,0.5282,0.5275,0.5279,0.5261,0.526,0.5259,0.5266,0.5266,0.5266,0.5268,0.5274,0,0,0,0,0,0.5375,0.5367,0.5355,0.5346,0.5342,0.5332,0.5326,0.5321,0.5311,0.5307,0.5298,0.5288,0.5278,0.5271,0.5261,0.525,0.5247,0.5246,0.5246,0.5246,0.5245,0.5239,0.5238,0.5244,0.5244,0.5244,0,0,0.5375,0.5366,0.5362,0.5347,0.534,0.5331,0.5329,0.532,0.5313,0.5306,0.5294,0.5287,0.5275,0.5264,0.5258,0.5257,0.5243,0.5245,0.5246,0.5245,0.5238,0.5238,0.5237,0.5244,0.5244,0.5244,0,0,0.5371,0.5363,0.5356,0.5348,0.5337,0.5331,0.5329,0.5316,0.5312,0.53,0.5294,0.5286,0.5269,0.5261,0.5255,0.5248,0.5244,0.5245,0.5245,0.5239,0.5238,0.5238,0.5235,0.5235,0.5244,0.5244,0.5244,0,0.5372,0.5359,0.5352,0.5344,0.5337,0.5331,0.5323,0.5316,0.5302,0.5298,0.5297,0.5276,0.5268,0.5254,0.5253,0.5248,0.5245,0.5246,0.5239,0.5238,0.5238,0.5235,0.5235,0.5244,0.5244,0.5244,0.5244,0,0.5361,0.5353,0.5348,0.5335,0.5329,0.532,0.5312,0.5306,0.5301,0.5294,0.5283,0.5273,0.5261,0.5257,0.5252,0.5243,0.5243,0.5241,0.524,0.5238,0.5235,0.5234,0.5245,0.5245,0.5244,0.5244,0,0,0.5359,0.5344,0.5342,0.5337,0.5324,0.5317,0.5308,0.5298,0.5293,0.5283,0.5276,0.5262,0.526,0.5253,0.5247,0.5242,0.5237,0.524,0.524,0.524,0.5227,0.5228,0.5227,0.5234,0.5234,0.5234,0.5228,0,0.5354,0.5339,0.5332,0.532,0.5312,0.5306,0.5299,0.529,0.5284,0.5276,0.5268,0.5259,0.5257,0.5253,0.5247,0.5239,0.5234,0.5239,0.5227,0.5227,0.523,0.5226,0.5228,0.5222,0.5227,0.5226,0.5226,0,0.5345,0.5336,0.5324,0.5313,0.5309,0.5303,0.5292,0.5285,0.5275,0.527,0.5263,0.5257,0.5248,0.5248,0.5235,0.5238,0.5233,0.5228,0.5227,0.5226,0.5226,0.5224,0.522,0.5219,0.5225,0.5225,0.5225,0,0.5345,0.533,0.5321,0.5316,0.5303,0.5299,0.5293,0.5283,0.5277,0.5268,0.5264,0.5253,0.5248,0.5239,0.5231,0.5232,0.5219,0.5218,0.5214,0.5215,0.5212,0.5212,0.5207,0.5208,0.5208,0.5208,0.5208,0,0.5339,0.5331,0.5321,0.5315,0.5307,0.5299,0.5291,0.5284,0.5276,0.5268,0.5262,0.5255,0.5245,0.5237,0.523,0.522,0.5217,0.5213,0.5212,0.5214,0.5215,0.521,0.521,0.5208,0.5208,0.5208,0.5208,0,0.5338,0.533,0.532,0.5309,0.5306,0.53,0.529,0.5284,0.5278,0.5268,0.5266,0.5255,0.5245,0.5236,0.5223,0.5218,0.5208,0.5206,0.5212,0.5211,0.5208,0.5208,0.5199,0.5198,0.5201,0.5201,0.5201,0,0.5334,0.5329,0.5317,0.5312,0.5307,0.5299,0.5293,0.5285,0.5279,0.5268,0.5263,0.5253,0.5244,0.5228,0.5219,0.5209,0.5206,0.5204,0.5204,0.5207,0.5206,0.5207,0.5206,0.5204,0.5204,0.5204,0.5204,0,0.5329,0.5326,0.5318,0.5309,0.5303,0.5295,0.5287,0.5283,0.5274,0.5267,0.5258,0.5251,0.5238,0.5227,0.5216,0.5209,0.5205,0.5204,0.5202,0.5205,0.5208,0.5206,0.5212,0.5204,0.5204,0.5204,0.5204,0.5204,0.5327,0.5322,0.5313,0.5305,0.5298,0.5291,0.5285,0.5278,0.527,0.5259,0.5255,0.5245,0.5235,0.522,0.5213,0.5205,0.5204,0.5202,0.5201,0.5201,0.5201,0.521,0.5203,0.5203,0.5202,0.5202,0.5202,0,0.5322,0.5316,0.5308,0.5298,0.5291,0.5289,0.528,0.5274,0.5266,0.5257,0.5249,0.5238,0.5228,0.5219,0.5208,0.5203,0.5201,0.5201,0.5201,0.52,0.5203,0.5205,0.5203,0.5203,0.5203,0.5203,0.5203,0.5203,0.5318,0.531,0.5306,0.5293,0.5287,0.5278,0.5274,0.5267,0.526,0.5248,0.524,0.5234,0.5225,0.5214,0.5205,0.5202,0.5199,0.5199,0.5196,0.5199,0.5199,0.5199,0.5201,0.5199,0.5199,0.5194,0.5194,0.5193]}]]